Location: Newark
(3.1475°N, 101.6933°E)
Time: 12:17:58
(UTC+00:00)

Envisat - Pass Details

Date: 20 September 2019
Orbit: 764 x 766 km, 98.1° (Epoch: 22 October)

Event Time Altitude Azimuth Distance (km) Brightness Sun altitude
Rises 12:30:04 0° 190° (S) 3,228 6.3 -20.7°
Reaches altitude 10° 12:32:42 10° 203° (SSW) 2,301 5.7 -21.4°
Maximum altitude 12:36:52 26° 258° (WSW) 1,469 5.2 -22.4°
Drops below altitude 10° 12:41:02 10° 314° (NW) 2,295 6.1 -23.5°
Sets 12:43:41 0° 327° (NNW) 3,219 6.7 -24.1°
